Flight Track Log - Related Links

Times and Time Zones

All times are in EDT time to prevent confusion due to time zone crossing. See the JBU56 flight status page for this flight to view local times or setup timezone preferences in your user account.

Time Position Orientation Groundspeed Altitude Reporting Facility
EDT Latitude Longitude Course Direction KTS MPH feet Rate Location/Type
Fri 09:06:48 AM 38.9667 -77.5167 90° East 174 200 2,000  Level Potomac TRACON
Fri 09:07:42 AM 39.0000 -77.5667 311° West 224 258 3,500 2,105 Climbing Potomac TRACON
Fri 09:08:42 AM 39.0667 -77.5333 21° North 283 326 6,000 2,737 Climbing Potomac TRACON
Fri 09:09:00 AM 39.0290 -76.9570 77° East  Level FlightAware Approximate
Fri 09:09:36 AM 39.1000 -77.4667 57° Northeast 299 344 8,700  Level Potomac TRACON
Fri 09:10:00 AM 39.0441 -76.8691 78° East  Level FlightAware Approximate
Fri 09:10:36 AM 39.1500 -77.3667 57° Northeast 306 352 10,000  Level Potomac TRACON
Fri 09:11:00 AM 39.0587 -76.7811 78° East  Level FlightAware Approximate
Fri 09:12:00 AM 39.0667 -76.6921 90° East  Level FlightAware Approximate
Fri 09:12:44 AM 39.1117 -77.1458 103° East 358 412 12,100  Level Washington Center
Fri 09:13:45 AM 39.0775 -77.0517 115° Southeast 358 412 14,000 2,331 Climbing Washington Center
Fri 09:14:45 AM 39.0897 -76.8914 84° East 353 406 16,800 2,370 Climbing Washington Center
Fri 09:15:44 AM 39.1017 -76.7525 84° East 364 419 18,700 1,950 Climbing Washington Center
Fri 09:16:45 AM 39.1153 -76.6108 83° East 387 445 20,700 1,835 Climbing Washington Center
Fri 09:17:45 AM 39.1292 -76.4639 83° East 404 465 22,400 1,160 Climbing Washington Center
Fri 09:18:44 AM 39.1406 -76.3142 84° East 415 478 23,000 303 Climbing Washington Center
Fri 09:19:44 AM 39.1600 -76.1456 81° East 421 484 23,000 50 Level Washington Center
Fri 09:20:44 AM 39.1772 -75.9958 82° East 426 490 23,100 857 Climbing Washington Center
Fri 09:21:43 AM 39.2153 -75.8514 71° East 426 490 24,700 1,500 Climbing Washington Center
Fri 09:22:44 AM 39.3008 -75.7392 45° Northeast 421 484 26,100 1,686 Climbing Washington Center
Fri 09:23:44 AM 39.3864 -75.6292 45° Northeast 421 484 28,100 1,815 Climbing Washington Center
Fri 09:24:43 AM 39.4719 -75.5217 44° Northeast 421 484 29,700 1,462 Climbing Washington Center
Fri 09:25:43 AM 39.5550 -75.4111 46° Northeast 421 484 31,000 424 Climbing Washington Center
Fri 09:27:47 AM 39.7358 -75.1631 46° Northeast 475 547 31,000  Level New York Center
Fri 09:28:48 AM 39.8214 -75.0414 48° Northeast 475 547 31,000  Level New York Center
Fri 09:29:47 AM 39.9072 -74.9194 47° Northeast 470 541 31,000  Level New York Center
Fri 09:30:47 AM 39.9928 -74.7972 48° Northeast 460 529 31,000  Level New York Center
Fri 09:31:48 AM 40.0694 -74.6850 48° Northeast 460 529 31,000 -305 Level New York Center
Fri 09:32:45 AM 40.1656 -74.5492 47° Northeast 455 524 30,400 -1,068 Descending New York Center
Fri 09:33:46 AM 40.2567 -74.4372 43° Northeast 450 518 28,900 -1,426 Descending New York Center
Fri 09:34:47 AM 40.3533 -74.3414 37° Northeast 433 498 27,500 -1,412 Descending New York Center
Fri 09:35:45 AM 40.4556 -74.2678 29° Northeast 428 493 26,100 -1,135 Descending New York Center
Fri 09:37:52 AM 40.5800 -74.0467 53° Northeast 419 482 24,000 -674 Descending Boston Center
Fri 09:38:52 AM 40.6636 -73.8764 57° Northeast 419 482 24,000  Level Boston Center
Fri 09:39:52 AM 40.7258 -73.7356 60° Northeast 426 490 24,000  Level Boston Center
Fri 09:40:52 AM 40.7833 -73.6050 60° Northeast 437 503 24,000  Level Boston Center
Fri 09:41:52 AM 40.8453 -73.4608 60° Northeast 448 516 24,000 -450 Level Boston Center
Fri 09:42:52 AM 40.9256 -73.3383 49° Northeast 448 516 23,100 -500 Descending Boston Center
Fri 09:43:52 AM 41.0161 -73.2047 48° Northeast 439 505 23,000 -50 Descending Boston Center
Fri 09:44:52 AM 41.0981 -73.0819 48° Northeast 439 505 23,000  Level Boston Center
Fri 09:45:52 AM 41.1633 -72.9447 58° Northeast 439 505 23,000  Level Boston Center
Fri 09:46:52 AM 41.2244 -72.8017 60° Northeast 444 511 23,000  Level Boston Center
Fri 09:47:52 AM 41.2831 -72.6667 60° Northeast 453 521 23,000  Level Boston Center
Fri 09:48:52 AM 41.3478 -72.5203 59° Northeast 453 521 23,000 -50 Level Boston Center
Fri 09:49:52 AM 41.4064 -72.3792 61° Northeast 453 521 22,900 -800 Descending Boston Center
Fri 09:50:52 AM 41.4667 -72.2378 60° Northeast 446 513 21,400 -1,409 Descending Boston Center
Fri 09:52:04 AM 41.5203 -72.0936 64° Northeast 435 501 19,800 -1,636 Descending Boston Center
Fri 09:53:04 AM 41.5803 -71.9211 65° Northeast 419 482 17,800 -1,800 Descending Boston Center
Fri 09:54:04 AM 41.6253 -71.7681 68° East 414 476 16,200 -1,500 Descending Boston Center
Fri 09:55:04 AM 41.6597 -71.6425 70° East 406 467 14,800 -1,300 Descending Boston Center
Fri 09:56:04 AM 41.7128 -71.4944 64° Northeast 400 460 13,600 -1,150 Descending Boston Center
Fri 09:57:04 AM 41.7556 -71.3797 63° Northeast 383 441 12,500 -1,200 Descending Boston Center
Fri 09:58:04 AM 41.8106 -71.2397 62° Northeast 378 435 11,200 -1,000 Descending Boston Center
Fri 09:59:04 AM 41.8489 -71.1386 63° Northeast 360 414 10,500 -1,132 Descending Boston Center
Fri 09:59:50 AM 41.8833 -71.0500 62° Northeast 317 365 9,200 -769 Descending KA90
Fri 10:01:01 AM 41.9333 -70.9333 60° Northeast 312 359 9,000 -92 Descending KA90
Fri 10:02:01 AM 41.9833 -70.8167 60° Northeast 316 364 9,000  Level KA90
Fri 10:03:01 AM 42.0333 -70.7333 51° Northeast 312 359 9,000 -50 Level KA90
Fri 10:04:01 AM 42.0833 -70.6500 51° Northeast 312 359 8,900 -789 Descending KA90
Fri 10:04:55 AM 42.1500 -70.6000 29° Northeast 283 326 7,500 -1,579 Descending KA90
Fri 10:05:55 AM 42.2333 -70.6000 360° North 279 321 5,900 -1,565 Descending KA90
Fri 10:06:50 AM 42.3000 -70.6167 350° North 272 313 4,500 -1,000 Descending KA90
Fri 10:07:49 AM 42.3667 -70.6667 331° Northwest 251 289 4,000 -316 Descending KA90
Fri 10:08:44 AM 42.4000 -70.7167 312° West 199 229 3,900 -345 Descending KA90
Fri 10:09:16 AM 42.4022 -70.7447 276° West 206 237 3,500 -1,043 Descending Boston Center
Fri 10:10:16 AM 42.3931 -70.8153 260° West 165 190 2,300 -941 Descending Boston Center
Fri 10:11:49 AM 42.3833 -70.9000 261° West 135 155 1,100 -701 Descending KA90
Fri 10:12:50 AM 42.3667 -70.9500 246° West 124 143 500 -590 Descending KA90
Fri 10:14:00 AM 42.3500 -71.0000 280° West  Level FlightAware Approximate
Fri 10:21:00 AM 42.3630 -71.0064 280° West  Level Estimated

Login

Don't have an account? Register now (free) for customized features, flight alerts, and more!